Danville, VA

10:13 AM EDT on October 23, 2017 (GMT -0400)
Danville Regional

Weather History for KDAN - March, 2012

Change the Weather History Date:

Sunday, March 25, 2012

  Actual Average Record
Temperature  
Mean Temperature 59 °F 52 °F  
Max Temperature 63 °F 62 °F 84 °F (1959)
Min Temperature 54 °F 41 °F 22 °F (1956)
Degree Days  
Heating Degree Days 6 14  
Month to date heating degree days 219 435  
Since 1 July heating degree days 2944 3436  
Cooling Degree Days 0 0  
Month to date cooling degree days 11 0  
Year to date cooling degree days 11 0  
Growing Degree Days 8 (Base 50)    
Moisture  
Dew Point 54 °F    
Average Humidity 89    
Maximum Humidity 100    
Minimum Humidity 78    
Precipitation  
Precipitation 0.07 in 0.15 in 1.35 in (1984)
Month to date precipitation 3.20 3.12  
Year to date precipitation 7.31 9.55  
Snow  
Snow 0.00 in - - ()
Month to date snowfall 0.0  
Since 1 July snowfall 3.0  
Snow Depth 0.00 in    
Sea Level Pressure  
Sea Level Pressure 29.76 in    
Wind  
Wind Speed 5 mph (North)    
Max Wind Speed 15 mph    
Max Gust Speed 20 mph    
Visibility 9 miles    
Events Rain    
T = Trace of Precipitation, MM = Missing Value Source: NWS Daily Summary

Daily Weather History Graph

Daily Weather History Graph

Search for Another Location

Airport or City:

Trip Planner

Search our weather history database for the weather conditions in past years. The results will help you decide how hot, cold, wet, or windy it might be!

Date:

Astronomy

Mar. 25, 2012 Rise Set
Actual Time 7:12 AM EDT 7:33 PM EDT
Civil Twilight 6:47 AM EDT 7:59 PM EDT
Nautical Twilight 6:16 AM EDT 8:30 PM EDT
Astronomical Twilight 5:46 AM EDT 9:01 PM EDT
Moon 8:30 AM EDT (3/25) 10:41 PM EDT (3/25)
Length of Visible Light 13h 12m
Length of Day
12h 21m
Waxing Crescent, 8% of the Moon is Illuminated
Mar 25
Waxing Crescent
Mar 30
First Quarter
Apr 6
Full
Apr 13
Last Quarter
Apr 21
New

Hourly Weather History & Observations

Time (EDT) Temp. Dew Point Humidity Pressure Visibility Wind Dir Wind Speed Gust Speed Precip Events Conditions
12:53 AM 54.0 °F 54.0 °F 100% 29.79 in 10.0 mi Calm Calm - 0.00 in   Overcast
1:53 AM 54.0 °F 54.0 °F 100% 29.78 in 10.0 mi Calm Calm - N/A   Clear
2:34 AM 55.4 °F 53.6 °F 94% 29.78 in 10.0 mi Calm Calm - N/A   Overcast
2:53 AM 55.0 °F 54.0 °F 96% 29.75 in 10.0 mi NE 3.5 mph - N/A   Mostly Cloudy
3:23 AM 53.6 °F 53.6 °F 100% 29.75 in 9.0 mi ENE 4.6 mph - N/A   Scattered Clouds
3:42 AM 53.6 °F 53.6 °F 100% 29.75 in 9.0 mi ENE 3.5 mph - N/A   Mostly Cloudy
3:53 AM 54.0 °F 54.0 °F 100% 29.73 in 8.0 mi East 3.5 mph - N/A   Overcast
4:53 AM 55.0 °F 54.0 °F 96% 29.71 in 9.0 mi NE 4.6 mph - N/A   Overcast
5:00 AM 55.4 °F 53.6 °F 94% 29.73 in 9.0 mi NE 4.6 mph - N/A   Overcast
5:10 AM 55.4 °F 53.6 °F 94% 29.73 in 9.0 mi NNE 5.8 mph - N/A   Overcast
5:53 AM 55.0 °F 54.0 °F 96% 29.71 in 10.0 mi NNE 4.6 mph - N/A   Overcast
6:53 AM 55.0 °F 54.0 °F 96% 29.72 in 10.0 mi Calm Calm - N/A   Overcast
7:53 AM 55.9 °F 54.0 °F 93% 29.74 in 10.0 mi NNE 3.5 mph - N/A   Overcast
8:14 AM 55.4 °F 55.4 °F 100% 29.76 in 10.0 mi North 3.5 mph - N/A   Overcast
8:28 AM 55.4 °F 55.4 °F 100% 29.76 in 10.0 mi North 5.8 mph - N/A   Overcast
8:53 AM 57.0 °F 55.0 °F 93% 29.75 in 10.0 mi Calm Calm - N/A   Overcast
9:06 AM 57.2 °F 55.4 °F 94% 29.77 in 10.0 mi Calm Calm - N/A   Overcast
9:53 AM 57.0 °F 55.9 °F 96% 29.77 in 10.0 mi Calm Calm - N/A   Overcast
10:08 AM 57.2 °F 55.4 °F 94% 29.78 in 10.0 mi SSW 4.6 mph - N/A   Overcast
10:16 AM 57.2 °F 55.4 °F 94% 29.78 in 10.0 mi SSW 4.6 mph - N/A   Overcast
10:39 AM 55.4 °F 51.8 °F 88% 29.78 in 10.0 mi West 8.1 mph - 0.00 in Rain Light Rain
10:53 AM 55.0 °F 52.0 °F 89% 29.76 in 10.0 mi West 8.1 mph - 0.00 in   Overcast
11:01 AM 55.4 °F 51.8 °F 88% 29.78 in 10.0 mi WNW 6.9 mph - N/A   Overcast
11:53 AM 54.0 °F 53.1 °F 97% 29.77 in 6.0 mi NW 4.6 mph - 0.04 in Rain Light Rain
12:18 PM 55.4 °F 53.6 °F 94% 29.78 in 5.0 mi West 4.6 mph - 0.00 in Rain Light Rain
12:51 PM 55.4 °F 55.4 °F 100% 29.78 in 5.0 mi NW 3.5 mph - 0.00 in Rain Light Rain
12:53 PM 55.9 °F 55.0 °F 97% 29.76 in 4.0 mi NW 4.6 mph - 0.00 in Rain Light Rain
1:02 PM 55.4 °F 55.4 °F 100% 29.78 in 2.5 mi NNW 3.5 mph - 0.01 in Rain Light Rain
1:09 PM 55.4 °F 55.4 °F 100% 29.78 in 3.0 mi NW 5.8 mph - 0.01 in   Overcast
1:53 PM 57.9 °F 55.9 °F 93% 29.76 in 10.0 mi North 5.8 mph - 0.01 in   Overcast
2:53 PM 59.0 °F 55.9 °F 90% 29.75 in 10.0 mi NNE 8.1 mph - N/A   Overcast
3:21 PM 59.0 °F 55.4 °F 88% 29.76 in 10.0 mi NNE 6.9 mph - N/A   Overcast
3:53 PM 59.0 °F 55.0 °F 87% 29.74 in 10.0 mi NE 10.4 mph - N/A   Overcast
4:46 PM 60.8 °F 53.6 °F 77% 29.76 in 10.0 mi NNE 9.2 mph - N/A   Mostly Cloudy
4:53 PM 63.0 °F 55.0 °F 75% 29.74 in 10.0 mi Variable 5.8 mph - N/A   Mostly Cloudy
5:28 PM 60.8 °F 53.6 °F 77% 29.76 in 10.0 mi North 11.5 mph - N/A   Overcast
5:42 PM 60.8 °F 53.6 °F 77% 29.76 in 10.0 mi North 6.9 mph - N/A   Overcast
5:53 PM 60.1 °F 54.0 °F 80% 29.75 in 10.0 mi North 5.8 mph - N/A   Overcast
6:27 PM 60.8 °F 55.4 °F 82% 29.76 in 10.0 mi North 8.1 mph - N/A   Overcast
6:53 PM 61.0 °F 55.0 °F 81% 29.75 in 10.0 mi NNW 5.8 mph - N/A   Overcast
7:53 PM 60.1 °F 55.0 °F 83% 29.76 in 10.0 mi NW 5.8 mph - N/A   Overcast
8:53 PM 59.0 °F 54.0 °F 83% 29.77 in 10.0 mi NNW 5.8 mph - N/A   Overcast
9:53 PM 57.9 °F 55.0 °F 90% 29.78 in 10.0 mi NNW 6.9 mph - N/A   Overcast
10:53 PM 57.9 °F 55.9 °F 93% 29.80 in 10.0 mi North 4.6 mph - 0.01 in Rain Light Rain
11:53 PM 57.9 °F 55.9 °F 93% 29.80 in 10.0 mi NNW 6.9 mph - 0.00 in Rain Light Rain